カタログに戻る

O3B MPOWER F8

運用中通信MEO
NORAD 62363·PAYLOAD·🇱🇺 Luxembourg

打ち上げ Dec 17, 2024 から Cape Canaveral Space Force Station

Loading…

次のパス (今後24時間)

TLE

最新Source: CelesTrak SupGP

元期: Sep 14, 2026, 18:00 UTC

1 62363C 24244B   26257.75000000  .00000000  00000+0  00000+0 0  2575
2 62363   0.0322  36.9523 0005232 126.6690 118.0397  5.00114833    14

AllMySatでO3B MPOWER F8をリアルタイム追跡

Download on the App Store